Location: Bay Shore Mobile Home Park
(38.5762°N, 75.0841°W)
Time: 08:58:56
(UTC+00:00)

Cosmos 1464 Rocket - Pass Details

Date: 15 November 2025
Orbit: 950 x 1001 km, 82.9° (Epoch: 05 December)

Event Time Altitude Azimuth Distance (km) Brightness Sun altitude
Rises 23:20:45 0° 183° (S) 3,698 7.2 -18.4°
Reaches altitude 10° 23:23:17 10° 183° (S) 2,747 6.5 -18.9°
Maximum altitude 23:29:36 85° 95° (E) 994 3.9 -20.1°
Drops below altitude 10° 23:35:52 10° 8° (N) 2,731 6.2 -21.3°
Sets 23:38:22 0° 8° (N) 3,674 6.9 -21.8°
